Regional Weather Roundup
Issued by NWS Sioux Falls, SD

Home | Current Version | Previous Version | Text Only | Print | Product List | Glossary On
Versions: 1 2 3 4 5 6 7 8 9 10 11 12 13 14 15 16 17 18 19 20 21 22 23 24 25 26 27 28 29 30 31 32 33 34 35 36 37 38 39 40 41 42 43 44 45 46 47 48 49 50
000
ASUS43 KFSD 271810
RWRFSD

WEATHER ROUNDUP FOR SE SOUTH DAKOTA/SW MINNESOTA/NW IOWA
NATIONAL WEATHER SERVICE SIOUX FALLS SD
1200 PM CST TUE JAN 27 2015

NOTE: "FAIR" INDICATES FEW OR NO CLOUDS BELOW 12,000 FEET WITH NO
SIGNIFICANT WEATHER AND OR OBSTRUCTIONS TO VISIBILITY.


SDZ038>040-050-052>070-271900-
SOUTHEAST SOUTH DAKOTA

CITY           SKY/WX    TMP DP  RH WIND       PRES   REMARKS
CHAMBERLAIN    SUNNY     45  34  66 SE7       29.96F
6HR MIN TEMP:  32; 6HR MAX TEMP:  45;

HURON          SUNNY     41  34  76 S16G23    29.99F
6HR MIN TEMP:  27; 6HR MAX TEMP:  42;

MADISON        CLOUDY    32  32 100 S12       30.05F WCI  23
MITCHELL       SUNNY     44  36  73 S20       30.01F
6HR MIN TEMP:  28; 6HR MAX TEMP:  44;

SIOUX FALLS    CLOUDY    32  31  96 SE9       30.08S FOG     WCI  24
6HR MIN TEMP:  23; 6HR MAX TEMP:  32;

WINNER         FAIR      57  36  45 VRB3      29.95F
YANKTON        SUNNY     45  36  70 SE13      30.06F
$$

MNZ071-072-080-081-089-090-097-098-271900-
SOUTHWEST MINNESOTA

CITY           SKY/WX    TMP DP  RH WIND       PRES   REMARKS
FAIRMONT       CLOUDY    34  23  64 SE8       30.14F WCI  27
JACKSON        PTSUNNY   36  32  87 SE8       30.13S
LUVERNE        CLOUDY    32  32 100 SE10      30.11S FOG     WCI  24
MARSHALL       CLOUDY    30  27  86 SE13G18   30.12F WCI  20
6HR MIN TEMP:  28; 6HR MAX TEMP:  30;

MONTEVIDEO     CLOUDY    30  30 100 S10       30.12F WCI  21
PIPESTONE      FOG       30  30 100 S9        30.07F VSB 1/4 WCI  22
REDWOOD FALLS  CLOUDY    32  29  88 S14       30.12F WCI  22
TRACY          CLOUDY    32  32  99 S13       30.11F WCI  22
WINDOM         CLOUDY    36  30  80 SE9       30.12F
WORTHINGTON    CLOUDY    30  28  93 SE12      30.12S WCI  21
$$

IAZ001>003-012>014-020>022-031-032-NEZ013-014-SDZ071-271900-
NORTHWEST IOWA

CITY           SKY/WX    TMP DP  RH WIND       PRES   REMARKS
CHEROKEE       SUNNY     39  34  83 SE8       30.12F
DENISON        SUNNY     43  36  75 S8        30.09F
ESTHERVILLE    MOSUNNY   34  30  85 SE9       30.13S WCI  27
LE MARS        CLOUDY    36  36 100 SE10      30.11F
ORANGE CITY    PTSUNNY   36  34  93 SE6       30.10S
SHELDON        CLOUDY    36  36 100 SE10      30.10F
SIOUX CITY     SUNNY     42  35  76 S10       30.11F
6HR MIN TEMP:  25; 6HR MAX TEMP:  42;

SPENCER        SUNNY     38  31  76 SE12      30.13S
6HR MIN TEMP:  30; 6HR MAX TEMP:  38;

STORM LAKE     SUNNY     37  34  87 SE9G16    30.12S
$$

ABBREVIATIONS USED IN REMARKS
   TC - TEMPERATURE IN CELSIUS
  WCI - WIND CHILL INDEX
   HX - HEAT INDEX
  VSB - VISIBILITY




USA.gov is the U.S. government's official web portal to all federal, state and local government web resources and services.